TimePST,TemperatureF,Dew PointF,Humidity,Sea Level PressureIn,VisibilityMPH,Wind Direction,Wind SpeedMPH,Gust SpeedMPH,PrecipitationIn,Events,Conditions,WindDirDegrees,DateUTC
12:54 AM,48.0,33.1,56,30.24,10.0,Calm,Calm,-,N/A,,Clear,0,2013-11-06 08:54:00
1:54 AM,48.9,33.1,54,30.24,10.0,East,3.5,-,N/A,,Clear,90,2013-11-06 09:54:00
2:54 AM,48.0,32.0,54,30.24,10.0,Calm,Calm,-,N/A,,Clear,0,2013-11-06 10:54:00
3:54 AM,48.9,33.1,54,30.23,10.0,East,4.6,-,N/A,,Clear,100,2013-11-06 11:54:00
4:54 AM,48.9,32.0,52,30.23,10.0,East,3.5,-,N/A,,Clear,90,2013-11-06 12:54:00
5:54 AM,50.0,32.0,50,30.23,10.0,East,6.9,-,N/A,,Clear,100,2013-11-06 13:54:00
6:54 AM,53.1,30.9,43,30.24,10.0,East,5.8,-,N/A,,Clear,80,2013-11-06 14:54:00
7:54 AM,57.0,33.1,40,30.26,10.0,Calm,Calm,-,N/A,,Clear,0,2013-11-06 15:54:00
8:54 AM,61.0,35.1,38,30.26,10.0,Calm,Calm,-,N/A,,Clear,0,2013-11-06 16:54:00
9:54 AM,64.9,37.0,36,30.26,10.0,WSW,4.6,-,N/A,,Clear,250,2013-11-06 17:54:00
10:54 AM,66.9,37.0,33,30.25,10.0,SW,6.9,-,N/A,,Clear,230,2013-11-06 18:54:00
11:54 AM,70.0,34.0,27,30.23,10.0,SW,6.9,-,N/A,,Clear,230,2013-11-06 19:54:00
12:54 PM,69.1,36.0,30,30.22,10.0,NW,5.8,-,N/A,,Clear,320,2013-11-06 20:54:00
1:54 PM,68.0,41.0,37,30.21,10.0,Calm,Calm,-,N/A,,Clear,0,2013-11-06 21:54:00
2:54 PM,69.1,45.0,42,30.20,10.0,NNW,3.5,-,N/A,,Clear,330,2013-11-06 22:54:00
3:54 PM,64.0,44.1,48,30.21,10.0,NNW,3.5,-,N/A,,Clear,330,2013-11-06 23:54:00
4:54 PM,60.1,45.0,57,30.20,10.0,Calm,Calm,-,N/A,,Clear,0,2013-11-07 00:54:00
5:54 PM,57.9,42.1,56,30.22,10.0,Calm,Calm,-,N/A,,Clear,0,2013-11-07 01:54:00
6:54 PM,55.9,39.0,53,30.22,10.0,Calm,Calm,-,N/A,,Clear,0,2013-11-07 02:54:00
7:54 PM,57.9,37.9,47,30.22,10.0,ESE,3.5,-,N/A,,Clear,120,2013-11-07 03:54:00
8:54 PM,55.0,37.9,53,30.23,10.0,Calm,Calm,-,N/A,,Clear,0,2013-11-07 04:54:00
9:54 PM,54.0,35.1,49,30.22,10.0,East,3.5,-,N/A,,Clear,80,2013-11-07 05:54:00
10:54 PM,54.0,35.1,49,30.22,10.0,ESE,6.9,-,N/A,,Clear,110,2013-11-07 06:54:00
11:54 PM,54.0,34.0,47,30.20,10.0,East,5.8,-,N/A,,Clear,100,2013-11-07 07:54:00